Beaver Bay, MN

11:05 PM CST on February 06, 2016 (GMT -0600)
Silver Bay Municipal

Weather History for KBFW - March, 2012

Change the Weather History Date:

Thursday, March 1, 2012

  Actual Average Record
Temperature  
Mean Temperature 30 °F -  
Max Temperature 35 °F 25 °F 41 °F (1998)
Min Temperature 26 °F 6 °F -18 °F (2009)
Degree Days  
Heating Degree Days 34    
Moisture  
Dew Point 23 °F    
Average Humidity 77    
Maximum Humidity 86    
Minimum Humidity 69    
Precipitation  
Precipitation 0.01 in - - ()
Sea Level Pressure  
Sea Level Pressure 29.72 in    
Wind  
Wind Speed 3 mph (NE)    
Max Wind Speed 7 mph    
Max Gust Speed -    
Visibility 8 miles    
Events Rain , Snow    
Averages and records for this station are not official NWS values.
T = Trace of Precipitation, MM = Missing Value Source: NWS Daily Summary

Daily Weather History Graph

Daily Weather History Graph

Search for Another Location

Airport or City:

Trip Planner

Search our weather history database for the weather conditions in past years. The results will help you decide how hot, cold, wet, or windy it might be!

Date:

Astronomy

Mar. 01, 2012 Rise Set
Actual Time 6:44 AM CST 5:51 PM CST
Civil Twilight 6:14 AM CST 6:22 PM CST
Nautical Twilight 5:38 AM CST 6:57 PM CST
Astronomical Twilight 5:03 AM CST 7:33 PM CST
Moon 10:53 AM CST (3/1) 2:02 AM CST (3/1)
Length of Visible Light 12h 08m
Length of Day
11h 06m
First Quarter, 57% of the Moon is Illuminated
Mar 1
First Quarter
Mar 8
Full
Mar 14
Last Quarter
Mar 22
New
Mar 30
First Quarter

Hourly Weather History & Observations

Time (CST) Temp. Windchill Dew Point Humidity Pressure Visibility Wind Dir Wind Speed Gust Speed Precip Events Conditions
12:34 AM 28.4 °F 23.3 °F 21.2 °F 74% 29.68 in 10.0 mi North 4.6 mph - N/A   Mostly Cloudy
12:54 AM 28.4 °F 22.2 °F 21.2 °F 74% 29.69 in 10.0 mi North 5.8 mph - N/A   Mostly Cloudy
1:14 AM 26.6 °F 20.0 °F 21.2 °F 80% 29.70 in 10.0 mi North 5.8 mph - N/A   Mostly Cloudy
1:34 AM 26.6 °F 20.0 °F 21.2 °F 80% 29.70 in 10.0 mi North 5.8 mph - N/A   Mostly Cloudy
1:54 AM 26.6 °F 21.2 °F 21.2 °F 80% 29.70 in 10.0 mi North 4.6 mph - N/A   Mostly Cloudy
2:14 AM 26.6 °F 21.2 °F 21.2 °F 80% 29.69 in 10.0 mi North 4.6 mph - N/A   Mostly Cloudy
2:34 AM 26.6 °F 20.0 °F 21.2 °F 80% 29.69 in 10.0 mi North 5.8 mph - N/A   Overcast
2:54 AM 26.6 °F 19.1 °F 19.4 °F 74% 29.69 in 10.0 mi North 6.9 mph - N/A   Mostly Cloudy
3:14 AM 26.6 °F 20.0 °F 19.4 °F 74% 29.69 in 10.0 mi North 5.8 mph - N/A   Overcast
3:34 AM 26.6 °F 20.0 °F 19.4 °F 74% 29.69 in 10.0 mi North 5.8 mph - N/A   Mostly Cloudy
3:54 AM 26.6 °F 22.6 °F 19.4 °F 74% 29.70 in 10.0 mi North 3.5 mph - N/A   Scattered Clouds
4:14 AM 26.6 °F 22.6 °F 19.4 °F 74% 29.70 in 10.0 mi NNE 3.5 mph - N/A   Scattered Clouds
4:34 AM 26.6 °F - 19.4 °F 74% 29.71 in 10.0 mi Calm Calm - N/A   Mostly Cloudy
4:54 AM 26.6 °F - 19.4 °F 74% 29.71 in 10.0 mi Calm Calm - N/A   Overcast
5:14 AM 26.6 °F - 19.4 °F 74% 29.72 in 10.0 mi Calm Calm - N/A   Overcast
5:34 AM 26.6 °F 22.6 °F 19.4 °F 74% 29.71 in 10.0 mi North 3.5 mph - N/A   Overcast
5:54 AM 26.6 °F - 19.4 °F 74% 29.71 in 10.0 mi Calm Calm - N/A   Overcast
6:14 AM 26.6 °F - 19.4 °F 74% 29.71 in 10.0 mi Calm Calm - N/A   Overcast
6:34 AM 26.6 °F - 19.4 °F 74% 29.72 in 10.0 mi Calm Calm - N/A   Overcast
6:54 AM 26.6 °F - 19.4 °F 74% 29.72 in 10.0 mi Calm Calm - N/A   Overcast
7:14 AM 26.6 °F 22.6 °F 19.4 °F 74% 29.72 in 10.0 mi NNE 3.5 mph - N/A   Mostly Cloudy
7:34 AM 26.6 °F 22.6 °F 19.4 °F 74% 29.71 in 10.0 mi NNE 3.5 mph - N/A   Scattered Clouds
7:55 AM 26.6 °F - 19.4 °F 74% 29.71 in 10.0 mi Calm Calm - N/A   Scattered Clouds
8:14 AM 26.6 °F - 19.4 °F 74% 29.72 in 10.0 mi Calm Calm - N/A   Scattered Clouds
8:34 AM 28.4 °F - 19.4 °F 69% 29.73 in 10.0 mi Calm Calm - N/A   Scattered Clouds
8:54 AM 28.4 °F - 19.4 °F 69% 29.72 in 10.0 mi Calm Calm - N/A   Scattered Clouds
9:14 AM 28.4 °F - 21.2 °F 74% 29.73 in 10.0 mi Calm Calm - N/A   Overcast
9:34 AM 28.4 °F - 21.2 °F 74% 29.73 in 7.0 mi Calm Calm - N/A   Scattered Clouds
9:54 AM 28.4 °F - 21.2 °F 74% 29.74 in 7.0 mi Calm Calm - N/A   Scattered Clouds
10:14 AM 30.2 °F - 21.2 °F 69% 29.74 in 4.0 mi Calm Calm - N/A   Haze
10:34 AM 30.2 °F - 23.0 °F 75% 29.74 in 3.0 mi Calm Calm - N/A   Light Freezing Rain
10:54 AM 33.8 °F - 24.8 °F 70% 29.74 in 2.5 mi Calm Calm - N/A   Light Drizzle
11:14 AM 33.8 °F - 24.8 °F 70% 29.75 in 2.0 mi Calm Calm - N/A   Light Drizzle
11:34 AM 32.0 °F - 24.8 °F 75% 29.75 in 2.0 mi Calm Calm - N/A   Light Drizzle
11:54 AM 33.8 °F - 24.8 °F 70% 29.75 in 1.8 mi Calm Calm - N/A   Light Drizzle
12:14 PM 32.0 °F - 24.8 °F 75% 29.75 in 1.8 mi Calm Calm - N/A   Light Drizzle
12:54 PM 30.2 °F - 24.8 °F 80% 29.74 in 1.5 mi Calm Calm - N/A Rain Light Freezing Rain
1:14 PM 32.0 °F - 26.6 °F 80% 29.73 in 2.5 mi Calm Calm - N/A   Light Drizzle
1:34 PM 33.8 °F - 26.6 °F 75% 29.73 in 3.0 mi Calm Calm - N/A   Mostly Cloudy
1:54 PM 33.8 °F 30.8 °F 24.8 °F 70% 29.72 in 2.0 mi South 3.5 mph - N/A Snow Light Snow
2:14 PM 33.8 °F 30.8 °F 26.6 °F 75% 29.71 in 10.0 mi SSE 3.5 mph - N/A   Mostly Cloudy
2:34 PM 35.6 °F - 26.6 °F 70% 29.70 in 10.0 mi Calm Calm - N/A   Mostly Cloudy
3:14 PM 35.6 °F 32.8 °F 26.6 °F 70% 29.70 in 2.5 mi SSW 3.5 mph - N/A Rain Rain
3:34 PM 32.0 °F 27.5 °F 24.8 °F 75% 29.70 in 1.0 mi SSE 4.6 mph - 0.01 in Snow Light Snow
3:54 PM 32.0 °F 27.5 °F 24.8 °F 75% 29.70 in 1.8 mi SSE 4.6 mph - N/A Snow Light Snow
4:14 PM 30.2 °F 25.4 °F 24.8 °F 80% 29.70 in 4.0 mi SSE 4.6 mph - N/A   Haze
4:34 PM 30.2 °F 26.7 °F 24.8 °F 80% 29.70 in 7.0 mi SSE 3.5 mph - N/A   Overcast
4:54 PM 30.2 °F 26.7 °F 24.8 °F 80% 29.71 in 10.0 mi South 3.5 mph - N/A   Overcast
5:14 PM 28.4 °F 22.2 °F 24.8 °F 86% 29.71 in 5.0 mi South 5.8 mph - N/A Snow Light Snow
5:34 PM 28.4 °F 23.3 °F 24.8 °F 86% 29.72 in 10.0 mi South 4.6 mph - N/A   Overcast
5:54 PM 28.4 °F - 24.8 °F 86% 29.72 in 7.0 mi Calm Calm - N/A   Overcast
6:14 PM 28.4 °F 23.3 °F 24.8 °F 86% 29.73 in 10.0 mi SSW 4.6 mph - N/A   Overcast
6:34 PM 28.4 °F 23.3 °F 24.8 °F 86% 29.73 in 10.0 mi SSW 4.6 mph - N/A   Overcast
6:54 PM 28.4 °F 23.3 °F 24.8 °F 86% 29.73 in 7.0 mi SSW 4.6 mph - N/A   Overcast
7:14 PM 28.4 °F - 24.8 °F 86% 29.73 in 7.0 mi Calm Calm - N/A   Overcast
7:34 PM 28.4 °F - 24.8 °F 86% 29.72 in 7.0 mi Calm Calm - N/A   Overcast
7:55 PM 28.4 °F - 24.8 °F 86% 29.72 in 7.0 mi Calm Calm - N/A   Overcast
8:14 PM 28.4 °F - 24.8 °F 86% 29.71 in 10.0 mi Calm Calm - N/A   Overcast
8:34 PM 28.4 °F - 24.8 °F 86% 29.71 in 10.0 mi Calm Calm - N/A   Overcast
8:54 PM 28.4 °F - 24.8 °F 86% 29.71 in 10.0 mi Calm Calm - N/A   Mostly Cloudy
9:14 PM 28.4 °F - 24.8 °F 86% 29.72 in 10.0 mi Calm Calm - N/A   Overcast
9:34 PM 28.4 °F - 24.8 °F 86% 29.72 in 10.0 mi Calm Calm - N/A   Overcast
9:54 PM 28.4 °F - 24.8 °F 86% 29.72 in 10.0 mi Calm Calm - N/A   Mostly Cloudy
10:14 PM 28.4 °F - 24.8 °F 86% 29.72 in 10.0 mi Calm Calm - N/A   Overcast
10:34 PM 28.4 °F - 24.8 °F 86% 29.72 in 10.0 mi Calm Calm - N/A   Overcast
10:54 PM 28.4 °F - 24.8 °F 86% 29.73 in 10.0 mi Calm Calm - N/A   Overcast
11:34 PM 28.4 °F - 24.8 °F 86% 29.72 in 10.0 mi Calm Calm - N/A   Overcast
11:54 PM 28.4 °F - 24.8 °F 86% 29.71 in 10.0 mi Calm Calm - N/A   Overcast